{"data":{"norad_id":54007,"intl_designator":"2022-125AV","name":"STARLINK-5132","alt_names":[],"object_type":"PAYLOAD","status":"ACTIVE","operator":null,"country":"US","launch_date":"2022-10-05","launch_site_code":"AFWTR","launch_vehicle":null,"mission":null,"orbit_class":"UNKNOWN","rcs_meters":null,"size_class":null,"mass_kg":null,"dimensions":null,"purposes":["comms"],"wikipedia_slug":null,"has_3d_model":false,"image_url":null,"decayed_at":null,"tle_current":{"epoch":"2026-05-24T13:47:34.391040Z","epoch_age_seconds":121871,"freshness":"FRESH","line1":"1 54007U 22125AV  26144.57470360  .00000229  00000+0  32451-4 0  9998","line2":"2 54007  53.2152 233.1017 0001190  87.5519 272.5609 15.08839663200922","mean_motion":15.08839663,"eccentricity":0.000119,"inclination_deg":53.2152,"raan_deg":233.1017,"arg_perigee_deg":87.5519,"mean_anomaly_deg":272.5609,"bstar":3.2451e-5,"rev_number":20092,"period_min":95.437575993785,"perigee_km":538.92119114961,"apogee_km":540.56764692734,"semimajor_km":6917.8814190385,"source":"CELESTRAK","updated_at":"2026-05-25T13:38:17.625442Z"}}}